www.cux-wetter.de
Wetterdaten: Donnerstag, 30.10.2008
Datum Zeit Temp. A. Feuchte A. Luftdruck Regen Wind Richtung Richtung Sonnenschein Solar Taupunkt Windchill Windben
30.10.2008 00:04 0,9 C 95 % 1002,5 hPa 0,0 l/m 2,2 km/h (1 Bft) S 185 0 min 0 W/m 0,2 C 0,9 C 2,2 km/h (1 Bft)
30.10.2008 00:09 0,9 C 95 % 1002,5 hPa 0,0 l/m 0,6 km/h (0 Bft) S 185 0 min 0 W/m 0,2 C 0,9 C 0,6 km/h (0 Bft)
30.10.2008 00:14 0,8 C 95 % 1002,5 hPa 0,0 l/m 0,0 km/h (0 Bft) S 170 0 min 0 W/m 0,1 C 0,8 C 0,0 km/h (0 Bft)
30.10.2008 00:19 0,7 C 95 % 1002,5 hPa 0,0 l/m 0,5 km/h (0 Bft) S 170 0 min 0 W/m -0,0 C 0,7 C 0,5 km/h (0 Bft)
30.10.2008 00:24 0,7 C 95 % 1002,5 hPa 0,0 l/m 0,7 km/h (0 Bft) S 170 0 min 0 W/m -0,0 C 0,7 C 0,7 km/h (0 Bft)
30.10.2008 00:29 0,7 C 95 % 1002,5 hPa 0,0 l/m 0,1 km/h (0 Bft) S 170 0 min 0 W/m -0,0 C 0,7 C 0,1 km/h (0 Bft)
30.10.2008 00:35 0,7 C 95 % 1002,5 hPa 0,0 l/m 0,0 km/h (0 Bft) S 170 0 min 0 W/m -0,0 C 0,7 C 0,0 km/h (0 Bft)
30.10.2008 00:40 0,6 C 95 % 1002,5 hPa 0,0 l/m 0,3 km/h (0 Bft) S 170 0 min 0 W/m -0,1 C 0,6 C 0,3 km/h (0 Bft)
30.10.2008 00:44 0,6 C 95 % 1002,5 hPa 0,0 l/m 0,0 km/h (0 Bft) S 170 0 min 0 W/m -0,1 C 0,6 C 0,0 km/h (0 Bft)
30.10.2008 00:49 0,6 C 95 % 1002,5 hPa 0,0 l/m 0,0 km/h (0 Bft) S 170 0 min 0 W/m -0,1 C 0,6 C 0,0 km/h (0 Bft)
30.10.2008 00:54 0,6 C 95 % 1002,5 hPa 0,0 l/m 0,0 km/h (0 Bft) S 170 0 min 0 W/m -0,1 C 0,6 C 0,0 km/h (0 Bft)
30.10.2008 00:59 0,6 C 95 % 1002,5 hPa 0,0 l/m 0,0 km/h (0 Bft) S 170 0 min 0 W/m -0,1 C 0,6 C 0,0 km/h (0 Bft)
30.10.2008 01:04 0,6 C 95 % 1001,5 hPa 0,0 l/m 0,0 km/h (0 Bft) S 170 0 min 0 W/m -0,1 C 0,6 C 0,0 km/h (0 Bft)
30.10.2008 01:09 0,7 C 95 % 1001,5 hPa 0,0 l/m 0,0 km/h (0 Bft) S 170 0 min 0 W/m -0,0 C 0,7 C 0,0 km/h (0 Bft)
30.10.2008 01:14 0,7 C 95 % 1001,5 hPa 0,0 l/m 0,0 km/h (0 Bft) S 170 0 min 0 W/m -0,0 C 0,7 C 0,0 km/h (0 Bft)
30.10.2008 01:19 0,7 C 95 % 1001,5 hPa 0,0 l/m 0,0 km/h (0 Bft) S 170 0 min 0 W/m -0,0 C 0,7 C 0,0 km/h (0 Bft)
30.10.2008 01:24 0,6 C 95 % 1001,5 hPa 0,0 l/m 0,0 km/h (0 Bft) S 170 0 min 0 W/m -0,1 C 0,6 C 0,0 km/h (0 Bft)
30.10.2008 01:29 0,6 C 95 % 1001,5 hPa 0,0 l/m 0,0 km/h (0 Bft) S 170 0 min 0 W/m -0,1 C 0,6 C 0,0 km/h (0 Bft)
30.10.2008 01:34 0,6 C 95 % 1001,5 hPa 0,0 l/m 0,0 km/h (0 Bft) S 170 0 min 0 W/m -0,1 C 0,6 C 0,0 km/h (0 Bft)
30.10.2008 01:39 0,6 C 95 % 1001,5 hPa 0,0 l/m 0,0 km/h (0 Bft) S 170 0 min 0 W/m -0,1 C 0,6 C 0,0 km/h (0 Bft)
30.10.2008 01:44 0,7 C 95 % 1001,5 hPa 0,0 l/m 0,0 km/h (0 Bft) S 170 0 min 0 W/m -0,0 C 0,7 C 0,0 km/h (0 Bft)
30.10.2008 01:50 0,7 C 95 % 1001,5 hPa 0,0 l/m 0,0 km/h (0 Bft) S 170 0 min 0 W/m -0,0 C 0,7 C 0,0 km/h (0 Bft)
30.10.2008 01:55 0,7 C 95 % 1001,5 hPa 0,0 l/m 0,0 km/h (0 Bft) S 170 0 min 0 W/m -0,0 C 0,7 C 0,0 km/h (0 Bft)
30.10.2008 01:59 0,7 C 95 % 1001,5 hPa 0,0 l/m 0,0 km/h (0 Bft) S 170 0 min 0 W/m -0,0 C 0,7 C 0,0 km/h (0 Bft)
30.10.2008 02:04 0,7 C 95 % 1001,5 hPa 0,0 l/m 0,0 km/h (0 Bft) S 170 0 min 0 W/m -0,0 C 0,7 C 0,0 km/h (0 Bft)
30.10.2008 02:09 0,7 C 95 % 1001,5 hPa 0,0 l/m 0,0 km/h (0 Bft) S 170 0 min 0 W/m -0,0 C 0,7 C 0,0 km/h (0 Bft)
30.10.2008 02:15 0,8 C 96 % 1001,5 hPa 0,0 l/m 0,0 km/h (0 Bft) S 170 0 min 0 W/m 0,2 C 0,8 C 0,0 km/h (0 Bft)
30.10.2008 02:19 0,7 C 95 % 1001,5 hPa 0,0 l/m 0,0 km/h (0 Bft) S 170 0 min 0 W/m -0,0 C 0,7 C 0,0 km/h (0 Bft)
30.10.2008 02:24 0,7 C 95 % 1000,5 hPa 0,0 l/m 0,0 km/h (0 Bft) S 170 0 min 0 W/m -0,0 C 0,7 C 0,0 km/h (0 Bft)
30.10.2008 02:29 0,7 C 95 % 1000,5 hPa 0,0 l/m 0,0 km/h (0 Bft) S 170 0 min 0 W/m -0,0 C 0,7 C 0,0 km/h (0 Bft)
30.10.2008 02:34 0,7 C 95 % 1000,5 hPa 0,0 l/m 0,0 km/h (0 Bft) S 170 0 min 0 W/m -0,0 C 0,7 C 0,0 km/h (0 Bft)
30.10.2008 02:39 0,7 C 95 % 1000,5 hPa 0,0 l/m 0,0 km/h (0 Bft) S 170 0 min 0 W/m -0,0 C 0,7 C 0,0 km/h (0 Bft)
30.10.2008 02:44 0,7 C 95 % 1000,5 hPa 0,0 l/m 0,0 km/h (0 Bft) S 170 0 min 0 W/m -0,0 C 0,7 C 0,0 km/h (0 Bft)
30.10.2008 02:49 0,7 C 95 % 1000,5 hPa 0,0 l/m 0,0 km/h (0 Bft) S 170 0 min 0 W/m -0,0 C 0,7 C 0,0 km/h (0 Bft)
30.10.2008 02:54 0,6 C 95 % 1000,5 hPa 0,0 l/m 0,1 km/h (0 Bft) S 170 0 min 0 W/m -0,1 C 0,6 C 0,1 km/h (0 Bft)
30.10.2008 02:59 0,6 C 95 % 1000,5 hPa 0,0 l/m 0,0 km/h (0 Bft) S 170 0 min 0 W/m -0,1 C 0,6 C 0,0 km/h (0 Bft)
30.10.2008 03:05 0,6 C 95 % 1000,5 hPa 0,0 l/m 0,0 km/h (0 Bft) S 170 0 min 0 W/m -0,1 C 0,6 C 0,0 km/h (0 Bft)
30.10.2008 03:09 0,6 C 95 % 1000,5 hPa 0,0 l/m 0,0 km/h (0 Bft) S 170 0 min 0 W/m -0,1 C 0,6 C 0,0 km/h (0 Bft)
30.10.2008 03:14 0,6 C 95 % 1000,5 hPa 0,0 l/m 0,0 km/h (0 Bft) S 170 0 min 0 W/m -0,1 C 0,6 C 0,0 km/h (0 Bft)
30.10.2008 03:19 0,5 C 95 % 1000,5 hPa 0,0 l/m 0,0 km/h (0 Bft) S 170 0 min 0 W/m -0,2 C 0,5 C 0,0 km/h (0 Bft)
30.10.2008 03:25 0,5 C 95 % 1000,5 hPa 0,0 l/m 0,0 km/h (0 Bft) S 170 0 min 0 W/m -0,2 C 0,5 C 0,0 km/h (0 Bft)
30.10.2008 03:30 0,5 C 95 % 1000,5 hPa 0,0 l/m 0,0 km/h (0 Bft) S 170 0 min 0 W/m -0,2 C 0,5 C 0,0 km/h (0 Bft)
30.10.2008 03:34 0,5 C 95 % 1000,5 hPa 0,0 l/m 0,0 km/h (0 Bft) S 170 0 min 0 W/m -0,2 C 0,5 C 0,0 km/h (0 Bft)
30.10.2008 03:39 0,5 C 95 % 1000,5 hPa 0,0 l/m 0,0 km/h (0 Bft) S 170 0 min 0 W/m -0,2 C 0,5 C 0,0 km/h (0 Bft)
30.10.2008 03:44 0,5 C 95 % 1000,5 hPa 0,0 l/m 0,0 km/h (0 Bft) S 170 0 min 0 W/m -0,2 C 0,5 C 0,0 km/h (0 Bft)
30.10.2008 03:49 0,5 C 95 % 1000,5 hPa 0,0 l/m 0,0 km/h (0 Bft) S 170 0 min 0 W/m -0,2 C 0,5 C 0,0 km/h (0 Bft)
30.10.2008 03:54 0,4 C 95 % 1000,5 hPa 0,0 l/m 0,0 km/h (0 Bft) S 170 0 min 0 W/m -0,3 C 0,4 C 0,0 km/h (0 Bft)
30.10.2008 03:59 0,5 C 95 % 1000,5 hPa 0,0 l/m 0,0 km/h (0 Bft) S 170 0 min 0 W/m -0,2 C 0,5 C 0,0 km/h (0 Bft)
30.10.2008 04:04 0,5 C 95 % 1000,5 hPa 0,0 l/m 0,0 km/h (0 Bft) S 170 0 min 0 W/m -0,2 C 0,5 C 0,0 km/h (0 Bft)
30.10.2008 04:09 0,5 C 95 % 1000,5 hPa 0,0 l/m 0,0 km/h (0 Bft) S 170 0 min 0 W/m -0,2 C 0,5 C 0,0 km/h (0 Bft)
30.10.2008 04:14 0,5 C 95 % 999,5 hPa 0,0 l/m 0,0 km/h (0 Bft) S 170 0 min 0 W/m -0,2 C 0,5 C 0,0 km/h (0 Bft)
30.10.2008 04:19 0,5 C 95 % 999,5 hPa 0,0 l/m 0,0 km/h (0 Bft) S 170 0 min 0 W/m -0,2 C 0,5 C 0,0 km/h (0 Bft)
30.10.2008 04:24 0,5 C 95 % 1000,5 hPa 0,0 l/m 0,0 km/h (0 Bft) S 170 0 min 0 W/m -0,2 C 0,5 C 0,0 km/h (0 Bft)
30.10.2008 04:29 0,6 C 95 % 1000,5 hPa 0,0 l/m 0,0 km/h (0 Bft) S 170 0 min 0 W/m -0,1 C 0,6 C 0,0 km/h (0 Bft)
30.10.2008 04:35 0,6 C 95 % 1000,5 hPa 0,0 l/m 0,0 km/h (0 Bft) S 170 0 min 0 W/m -0,1 C 0,6 C 0,0 km/h (0 Bft)
30.10.2008 04:40 0,6 C 95 % 1000,5 hPa 0,0 l/m 0,0 km/h (0 Bft) S 170 0 min 0 W/m -0,1 C 0,6 C 0,0 km/h (0 Bft)
30.10.2008 04:44 0,6 C 95 % 1000,5 hPa 0,0 l/m 0,1 km/h (0 Bft) S 170 0 min 0 W/m -0,1 C 0,6 C 0,1 km/h (0 Bft)
30.10.2008 04:49 0,7 C 95 % 1000,5 hPa 0,0 l/m 0,0 km/h (0 Bft) S 170 0 min 0 W/m -0,0 C 0,7 C 0,0 km/h (0 Bft)
30.10.2008 04:54 0,7 C 95 % 999,5 hPa 0,0 l/m 0,1 km/h (0 Bft) S 170 0 min 0 W/m -0,0 C 0,7 C 0,1 km/h (0 Bft)
30.10.2008 04:59 0,7 C 95 % 999,5 hPa 0,0 l/m 0,0 km/h (0 Bft) SO 145 0 min 0 W/m -0,0 C 0,7 C 0,0 km/h (0 Bft)
30.10.2008 05:04 0,7 C 95 % 999,5 hPa 0,0 l/m 0,0 km/h (0 Bft) SO 125 0 min 0 W/m -0,0 C 0,7 C 0,0 km/h (0 Bft)
30.10.2008 05:09 0,9 C 96 % 999,5 hPa 0,0 l/m 0,0 km/h (0 Bft) O-SO 110 0 min 0 W/m 0,3 C 0,9 C 0,0 km/h (0 Bft)
30.10.2008 05:14 1,1 C 96 % 999,5 hPa 0,0 l/m 0,0 km/h (0 Bft) O-SO 110 0 min 0 W/m 0,5 C 1,1 C 0,0 km/h (0 Bft)
30.10.2008 05:19 1,1 C 96 % 999,5 hPa 0,0 l/m 0,0 km/h (0 Bft) O-SO 105 0 min 0 W/m 0,5 C 1,1 C 0,0 km/h (0 Bft)
30.10.2008 05:24 1,2 C 96 % 999,5 hPa 0,0 l/m 0,0 km/h (0 Bft) O-SO 105 0 min 0 W/m 0,6 C 1,2 C 0,0 km/h (0 Bft)
30.10.2008 05:29 1,2 C 96 % 999,5 hPa 0,0 l/m 0,0 km/h (0 Bft) O-SO 105 0 min 0 W/m 0,6 C 1,2 C 0,0 km/h (0 Bft)
30.10.2008 05:34 1,2 C 96 % 999,5 hPa 0,0 l/m 0,0 km/h (0 Bft) O-SO 105 0 min 0 W/m 0,6 C 1,2 C 0,0 km/h (0 Bft)
30.10.2008 05:39 1,2 C 96 % 999,5 hPa 0,0 l/m 0,0 km/h (0 Bft) O-SO 105 0 min 0 W/m 0,6 C 1,2 C 0,0 km/h (0 Bft)
30.10.2008 05:45 1,2 C 96 % 999,5 hPa 0,0 l/m 0,0 km/h (0 Bft) O-SO 105 0 min 0 W/m 0,6 C 1,2 C 0,0 km/h (0 Bft)
30.10.2008 05:50 1,3 C 96 % 999,5 hPa 0,0 l/m 0,0 km/h (0 Bft) O-SO 105 0 min 0 W/m 0,7 C 1,3 C 0,0 km/h (0 Bft)
30.10.2008 05:54 1,3 C 96 % 999,5 hPa 0,0 l/m 0,2 km/h (0 Bft) O-SO 105 0 min 0 W/m 0,7 C 1,3 C 0,2 km/h (0 Bft)
30.10.2008 05:59 1,3 C 96 % 999,5 hPa 0,0 l/m 0,4 km/h (0 Bft) O-SO 105 0 min 0 W/m 0,7 C 1,3 C 0,4 km/h (0 Bft)
30.10.2008 06:04 1,4 C 96 % 999,5 hPa 0,0 l/m 0,4 km/h (0 Bft) O-SO 105 0 min 0 W/m 0,8 C 1,4 C 0,4 km/h (0 Bft)
30.10.2008 06:10 1,4 C 96 % 999,5 hPa 0,0 l/m 0,3 km/h (0 Bft) O-SO 105 0 min 0 W/m 0,8 C 1,4 C 0,3 km/h (0 Bft)
30.10.2008 06:14 1,5 C 96 % 999,5 hPa 0,0 l/m 0,3 km/h (0 Bft) O 100 0 min 0 W/m 0,9 C 1,5 C 0,3 km/h (0 Bft)
30.10.2008 06:19 1,5 C 96 % 999,5 hPa 0,0 l/m 0,4 km/h (0 Bft) O 100 0 min 0 W/m 0,9 C 1,5 C 0,4 km/h (0 Bft)
30.10.2008 06:24 1,6 C 96 % 998,5 hPa 0,0 l/m 0,7 km/h (0 Bft) O 100 0 min 0 W/m 1,0 C 1,6 C 0,7 km/h (0 Bft)
30.10.2008 06:29 1,7 C 96 % 998,5 hPa 0,0 l/m 0,0 km/h (0 Bft) O 100 0 min 0 W/m 1,1 C 1,7 C 0,0 km/h (0 Bft)
30.10.2008 06:34 1,7 C 96 % 998,5 hPa 0,0 l/m 0,2 km/h (0 Bft) O 100 0 min 0 W/m 1,1 C 1,7 C 0,2 km/h (0 Bft)
30.10.2008 06:39 1,7 C 96 % 998,5 hPa 0,0 l/m 0,4 km/h (0 Bft) O 100 0 min 0 W/m 1,1 C 1,7 C 0,4 km/h (0 Bft)
30.10.2008 06:44 1,8 C 96 % 998,5 hPa 0,0 l/m 0,6 km/h (0 Bft) O 100 0 min 0 W/m 1,2 C 1,8 C 0,6 km/h (0 Bft)
30.10.2008 06:50 1,7 C 96 % 998,5 hPa 0,0 l/m 0,1 km/h (0 Bft) O 100 0 min 0 W/m 1,1 C 1,7 C 0,1 km/h (0 Bft)
30.10.2008 06:54 1,7 C 96 % 998,5 hPa 0,0 l/m 0,1 km/h (0 Bft) O 100 0 min 0 W/m 1,1 C 1,7 C 0,1 km/h (0 Bft)
30.10.2008 06:59 1,8 C 96 % 998,5 hPa 0,0 l/m 0,0 km/h (0 Bft) O 100 0 min 0 W/m 1,2 C 1,8 C 0,0 km/h (0 Bft)
30.10.2008 07:04 1,7 C 96 % 998,5 hPa 0,0 l/m 0,0 km/h (0 Bft) O 100 0 min 0 W/m 1,1 C 1,7 C 0,0 km/h (0 Bft)
30.10.2008 07:10 1,7 C 96 % 998,5 hPa 0,0 l/m 0,4 km/h (0 Bft) O 100 0 min 0 W/m 1,1 C 1,7 C 0,4 km/h (0 Bft)
30.10.2008 07:14 1,7 C 96 % 998,5 hPa 0,0 l/m 0,6 km/h (0 Bft) O 90 0 min 0 W/m 1,1 C 1,7 C 0,6 km/h (0 Bft)
30.10.2008 07:19 1,8 C 96 % 998,5 hPa 0,0 l/m 0,9 km/h (0 Bft) O 85 0 min 0 W/m 1,2 C 1,8 C 0,9 km/h (0 Bft)
30.10.2008 07:24 1,9 C 96 % 998,5 hPa 0,0 l/m 0,9 km/h (0 Bft) O 85 0 min 0 W/m 1,3 C 1,9 C 0,9 km/h (0 Bft)
30.10.2008 07:29 1,9 C 96 % 998,5 hPa 0,0 l/m 0,6 km/h (0 Bft) NO 35 0 min 0 W/m 1,3 C 1,9 C 0,6 km/h (0 Bft)
30.10.2008 07:34 2,0 C 96 % 998,5 hPa 0,0 l/m 4,0 km/h (1 Bft) N-NO 25 0 min 0 W/m 1,4 C 2,0 C 4,0 km/h (1 Bft)
30.10.2008 07:39 2,1 C 96 % 998,5 hPa 0,0 l/m 8,5 km/h (2 Bft) NO 35 0 min 0 W/m 1,5 C 0,1 C 8,5 km/h (2 Bft)
30.10.2008 07:44 2,3 C 96 % 998,5 hPa 0,0 l/m 6,3 km/h (2 Bft) NO 35 0 min 0 W/m 1,7 C 2,3 C 6,3 km/h (2 Bft)
30.10.2008 07:50 2,4 C 96 % 998,5 hPa 0,0 l/m 6,1 km/h (2 Bft) N-NO 20 0 min 0 W/m 1,8 C 2,4 C 6,1 km/h (2 Bft)
30.10.2008 07:55 2,5 C 96 % 997,5 hPa 0,0 l/m 7,8 km/h (2 Bft) NO 35 0 min 0 W/m 1,9 C 1,2 C 7,8 km/h (2 Bft)
30.10.2008 07:59 2,7 C 96 % 997,5 hPa 0,0 l/m 5,2 km/h (1 Bft) N 5 0 min 0 W/m 2,1 C 2,7 C 5,2 km/h (1 Bft)
30.10.2008 08:04 2,8 C 96 % 997,5 hPa 0,0 l/m 7,0 km/h (2 Bft) NO 35 0 min 0 W/m 2,2 C 2,2 C 7,0 km/h (2 Bft)
30.10.2008 08:10 2,9 C 96 % 997,5 hPa 0,0 l/m 3,8 km/h (1 Bft) N-NO 15 0 min 0 W/m 2,3 C 2,9 C 3,8 km/h (1 Bft)
30.10.2008 08:15 4,5 C 97 % 997,5 hPa 0,0 l/m 2,5 km/h (1 Bft) NO 35 0 min 0 W/m 4,1 C 4,5 C 2,5 km/h (1 Bft)
30.10.2008 08:19 5,2 C 98 % 997,5 hPa 0,0 l/m 7,0 km/h (2 Bft) NO 40 0 min 0 W/m 4,9 C 4,7 C 7,0 km/h (2 Bft)
30.10.2008 08:24 5,9 C 97 % 997,5 hPa 0,0 l/m 7,4 km/h (2 Bft) NO 40 0 min 0 W/m 5,5 C 5,0 C 7,4 km/h (2 Bft)
30.10.2008 08:29 6,0 C 97 % 997,5 hPa 0,0 l/m 8,7 km/h (2 Bft) O-NO 65 0 min 0 W/m 5,6 C 4,1 C 8,7 km/h (2 Bft)
30.10.2008 08:34 6,2 C 97 % 997,5 hPa 0,0 l/m 6,2 km/h (2 Bft) N-NO 30 0 min 0 W/m 5,8 C 6,2 C 6,2 km/h (2 Bft)
30.10.2008 08:39 6,6 C 97 % 997,5 hPa 0,0 l/m 8,8 km/h (2 Bft) NO 45 0 min 0 W/m 6,2 C 4,7 C 8,8 km/h (2 Bft)
30.10.2008 08:44 6,7 C 96 % 997,5 hPa 0,0 l/m 5,4 km/h (2 Bft) NO 40 0 min 0 W/m 6,1 C 6,7 C 5,4 km/h (2 Bft)
30.10.2008 08:49 7,1 C 96 % 997,5 hPa 0,0 l/m 0,6 km/h (0 Bft) O-NO 65 0 min 0 W/m 6,5 C 7,1 C 0,6 km/h (0 Bft)
30.10.2008 08:55 7,2 C 96 % 997,5 hPa 0,0 l/m 6,1 km/h (2 Bft) O-NO 70 0 min 0 W/m 6,6 C 7,2 C 6,1 km/h (2 Bft)
30.10.2008 08:59 7,5 C 95 % 997,5 hPa 0,0 l/m 0,9 km/h (0 Bft) O-NO 70 0 min 0 W/m 6,8 C 7,5 C 0,9 km/h (0 Bft)
30.10.2008 09:04 8,0 C 94 % 997,5 hPa 0,0 l/m 0,0 km/h (0 Bft) O-NO 70 0 min 0 W/m 7,1 C 8,0 C 0,0 km/h (0 Bft)
30.10.2008 09:09 8,0 C 93 % 997,5 hPa 0,0 l/m 0,0 km/h (0 Bft) O-NO 70 0 min 0 W/m 6,9 C 8,0 C 0,0 km/h (0 Bft)
30.10.2008 09:15 8,0 C 92 % 997,5 hPa 0,0 l/m 0,7 km/h (0 Bft) O-NO 70 0 min 0 W/m 6,8 C 8,0 C 0,7 km/h (0 Bft)
30.10.2008 09:19 7,8 C 91 % 997,5 hPa 0,0 l/m 6,1 km/h (2 Bft) O-NO 70 0 min 0 W/m 6,4 C 7,8 C 6,1 km/h (2 Bft)
30.10.2008 09:24 7,6 C 90 % 997,5 hPa 0,0 l/m 7,4 km/h (2 Bft) NO 35 0 min 0 W/m 6,1 C 6,8 C 7,4 km/h (2 Bft)
30.10.2008 09:29 7,2 C 89 % 997,5 hPa 0,0 l/m 6,5 km/h (2 Bft) N-NO 15 0 min 0 W/m 5,5 C 7,1 C 6,5 km/h (2 Bft)
30.10.2008 09:34 7,2 C 91 % 997,5 hPa 0,0 l/m 1,6 km/h (1 Bft) N-NO 15 0 min 0 W/m 5,8 C 7,2 C 1,6 km/h (1 Bft)
30.10.2008 09:39 7,2 C 91 % 997,5 hPa 0,0 l/m 6,3 km/h (2 Bft) NO 35 0 min 0 W/m 5,8 C 7,2 C 6,3 km/h (2 Bft)
30.10.2008 09:44 7,6 C 91 % 997,5 hPa 0,0 l/m 5,6 km/h (2 Bft) N-NO 25 0 min 0 W/m 6,2 C 7,6 C 5,6 km/h (2 Bft)
30.10.2008 09:49 7,7 C 90 % 997,5 hPa 0,0 l/m 7,9 km/h (2 Bft) NO 40 0 min 0 W/m 6,2 C 6,5 C 7,9 km/h (2 Bft)
30.10.2008 09:55 6,7 C 89 % 997,5 hPa 0,0 l/m 9,0 km/h (2 Bft) NO 50 0 min 0 W/m 5,0 C 4,6 C 9,0 km/h (2 Bft)
30.10.2008 10:00 6,3 C 89 % 997,5 hPa 0,0 l/m 8,1 km/h (2 Bft) NO 35 0 min 0 W/m 4,6 C 4,9 C 8,1 km/h (2 Bft)
30.10.2008 10:04 6,0 C 90 % 997,5 hPa 0,0 l/m 9,3 km/h (2 Bft) NO 40 0 min 0 W/m 4,5 C 3,7 C 9,3 km/h (2 Bft)
30.10.2008 10:09 5,7 C 91 % 997,5 hPa 0,0 l/m 10,6 km/h (2 Bft) NO 50 0 min 0 W/m 4,3 C 2,4 C 10,6 km/h (2 Bft)
30.10.2008 10:15 5,6 C 91 % 997,5 hPa 0,0 l/m 10,0 km/h (2 Bft) NO 35 0 min 0 W/m 4,2 C 2,7 C 10,0 km/h (2 Bft)
30.10.2008 10:20 5,6 C 91 % 997,5 hPa 0,0 l/m 10,5 km/h (2 Bft) N-NO 30 0 min 0 W/m 4,2 C 2,4 C 10,5 km/h (2 Bft)
30.10.2008 10:24 5,6 C 92 % 997,5 hPa 0,0 l/m 9,4 km/h (2 Bft) N-NO 25 0 min 0 W/m 4,4 C 3,2 C 9,4 km/h (2 Bft)
30.10.2008 10:29 5,6 C 92 % 997,5 hPa 0,0 l/m 11,0 km/h (2 Bft) N-NO 20 0 min 0 W/m 4,4 C 2,1 C 11,0 km/h (2 Bft)
30.10.2008 10:34 5,7 C 92 % 997,5 hPa 0,0 l/m 10,6 km/h (2 Bft) N 10 0 min 0 W/m 4,5 C 2,4 C 10,6 km/h (2 Bft)
30.10.2008 10:39 5,7 C 92 % 997,5 hPa 0,0 l/m 13,8 km/h (3 Bft) NO 35 0 min 0 W/m 4,5 C 0,5 C 13,8 km/h (3 Bft)
30.10.2008 10:44 5,7 C 92 % 997,5 hPa 0,0 l/m 10,1 km/h (2 Bft) NO 50 0 min 0 W/m 4,5 C 2,8 C 10,1 km/h (2 Bft)
30.10.2008 10:49 5,8 C 92 % 997,5 hPa 0,0 l/m 12,6 km/h (3 Bft) N 360 0 min 0 W/m 4,6 C 1,3 C 12,6 km/h (3 Bft)
30.10.2008 10:54 5,8 C 92 % 997,5 hPa 0,0 l/m 9,9 km/h (2 Bft) NO 35 0 min 0 W/m 4,6 C 3,0 C 9,9 km/h (2 Bft)
30.10.2008 11:00 5,9 C 92 % 997,5 hPa 0,0 l/m 14,7 km/h (3 Bft) NO 35 0 min 0 W/m 4,7 C 0,3 C 14,7 km/h (3 Bft)
30.10.2008 11:04 5,9 C 92 % 997,5 hPa 0,0 l/m 10,4 km/h (2 Bft) NO 35 0 min 0 W/m 4,7 C 2,8 C 10,4 km/h (2 Bft)
30.10.2008 11:09 6,0 C 92 % 997,5 hPa 0,0 l/m 11,6 km/h (2 Bft) N-NO 15 0 min 0 W/m 4,8 C 2,1 C 11,6 km/h (2 Bft)
30.10.2008 11:14 6,0 C 92 % 997,5 hPa 0,0 l/m 12,3 km/h (2 Bft) NO 35 0 min 0 W/m 4,8 C 1,7 C 12,3 km/h (2 Bft)
30.10.2008 11:20 6,1 C 92 % 997,5 hPa 0,0 l/m 13,6 km/h (3 Bft) NO 45 0 min 0 W/m 4,9 C 1,1 C 13,6 km/h (3 Bft)
30.10.2008 11:24 6,1 C 92 % 997,5 hPa 0,0 l/m 14,1 km/h (3 Bft) N-NO 15 0 min 0 W/m 4,9 C 0,9 C 14,1 km/h (3 Bft)
30.10.2008 11:29 6,3 C 92 % 997,5 hPa 0,0 l/m 10,6 km/h (2 Bft) N-NO 25 0 min 0 W/m 5,1 C 3,1 C 10,6 km/h (2 Bft)
30.10.2008 11:34 6,4 C 92 % 997,5 hPa 0,0 l/m 11,4 km/h (2 Bft) N-NO 25 0 min 0 W/m 5,2 C 2,7 C 11,4 km/h (2 Bft)
30.10.2008 11:39 6,5 C 91 % 997,5 hPa 0,0 l/m 12,1 km/h (2 Bft) NO 35 0 min 0 W/m 5,1 C 2,4 C 12,1 km/h (2 Bft)
30.10.2008 11:44 6,6 C 91 % 997,5 hPa 0,0 l/m 14,1 km/h (3 Bft) NO 35 0 min 0 W/m 5,2 C 1,5 C 14,1 km/h (3 Bft)
30.10.2008 11:49 6,6 C 91 % 997,5 hPa 0,0 l/m 13,9 km/h (3 Bft) NO 35 0 min 0 W/m 5,2 C 1,6 C 13,9 km/h (3 Bft)
30.10.2008 11:54 6,7 C 91 % 997,5 hPa 0,0 l/m 16,6 km/h (3 Bft) NO 35 0 min 0 W/m 5,3 C 0,4 C 16,6 km/h (3 Bft)
30.10.2008 12:00 6,7 C 90 % 997,5 hPa 0,0 l/m 12,5 km/h (2 Bft) NO 35 0 min 0 W/m 5,2 C 2,4 C 12,5 km/h (2 Bft)
30.10.2008 12:05 6,8 C 90 % 997,5 hPa 0,0 l/m 12,7 km/h (3 Bft) N-NO 15 0 min 0 W/m 5,3 C 2,4 C 12,7 km/h (3 Bft)
30.10.2008 12:09 6,8 C 90 % 997,5 hPa 0,0 l/m 22,9 km/h (4 Bft) N-NO 20 0 min 0 W/m 5,3 C -1,9 C 22,9 km/h (4 Bft)
30.10.2008 12:14 6,9 C 90 % 997,5 hPa 0,0 l/m 16,6 km/h (3 Bft) N-NO 25 0 min 0 W/m 5,4 C 0,6 C 16,6 km/h (3 Bft)
30.10.2008 12:19 7,0 C 89 % 997,5 hPa 0,0 l/m 18,1 km/h (3 Bft) N-NO 30 0 min 0 W/m 5,3 C 0,1 C 18,1 km/h (3 Bft)
30.10.2008 12:24 7,0 C 89 % 997,5 hPa 0,0 l/m 21,6 km/h (4 Bft) N-NO 25 0 min 0 W/m 5,3 C -1,2 C 21,6 km/h (4 Bft)
30.10.2008 12:29 7,0 C 88 % 997,5 hPa 0,0 l/m 18,3 km/h (3 Bft) NO 40 0 min 0 W/m 5,2 C 0,1 C 18,3 km/h (3 Bft)
30.10.2008 12:34 7,1 C 88 % 997,5 hPa 0,0 l/m 16,3 km/h (3 Bft) N-NO 25 0 min 0 W/m 5,2 C 1,0 C 16,3 km/h (3 Bft)
30.10.2008 12:39 7,1 C 87 % 997,5 hPa 0,0 l/m 19,5 km/h (3 Bft) N-NO 15 0 min 0 W/m 5,1 C -0,3 C 19,5 km/h (3 Bft)
30.10.2008 12:44 7,0 C 87 % 997,5 hPa 0,0 l/m 17,6 km/h (3 Bft) NO 35 0 min 0 W/m 5,0 C 0,3 C 17,6 km/h (3 Bft)
30.10.2008 12:49 7,1 C 87 % 997,5 hPa 0,0 l/m 16,5 km/h (3 Bft) N-NO 25 0 min 0 W/m 5,1 C 0,9 C 16,5 km/h (3 Bft)
30.10.2008 12:54 7,2 C 87 % 997,5 hPa 0,0 l/m 15,5 km/h (3 Bft) N-NO 30 0 min 0 W/m 5,2 C 1,5 C 15,5 km/h (3 Bft)
30.10.2008 12:59 7,2 C 87 % 997,5 hPa 0,0 l/m 20,1 km/h (4 Bft) N-NO 25 0 min 0 W/m 5,2 C -0,4 C 20,1 km/h (4 Bft)
30.10.2008 13:04 7,2 C 86 % 996,5 hPa 0,0 l/m 17,0 km/h (3 Bft) N-NO 30 0 min 0 W/m 5,0 C 0,8 C 17,0 km/h (3 Bft)
30.10.2008 13:09 7,2 C 86 % 996,5 hPa 0,0 l/m 9,0 km/h (2 Bft) N-NO 20 0 min 0 W/m 5,0 C 5,2 C 9,0 km/h (2 Bft)
30.10.2008 13:14 7,2 C 86 % 996,5 hPa 0,0 l/m 14,1 km/h (3 Bft) N-NO 25 0 min 0 W/m 5,0 C 2,2 C 14,1 km/h (3 Bft)
30.10.2008 13:19 7,2 C 85 % 997,5 hPa 0,0 l/m 14,1 km/h (3 Bft) N-NO 25 0 min 0 W/m 4,9 C 2,2 C 14,1 km/h (3 Bft)
30.10.2008 13:24 7,3 C 85 % 996,5 hPa 0,0 l/m 17,1 km/h (3 Bft) N-NO 20 0 min 0 W/m 4,9 C 0,9 C 17,1 km/h (3 Bft)
30.10.2008 13:29 7,3 C 85 % 997,5 hPa 0,0 l/m 19,7 km/h (3 Bft) N-NO 25 0 min 0 W/m 4,9 C -0,1 C 19,7 km/h (3 Bft)
30.10.2008 13:34 7,3 C 85 % 997,5 hPa 0,0 l/m 20,0 km/h (4 Bft) N 10 0 min 0 W/m 4,9 C -0,2 C 20,0 km/h (4 Bft)
30.10.2008 13:40 7,4 C 85 % 997,5 hPa 0,0 l/m 10,7 km/h (2 Bft) N-NO 20 0 min 0 W/m 5,0 C 4,3 C 10,7 km/h (2 Bft)
30.10.2008 13:44 7,5 C 85 % 997,5 hPa 0,0 l/m 14,1 km/h (3 Bft) N-NO 30 0 min 0 W/m 5,1 C 2,5 C 14,1 km/h (3 Bft)
30.10.2008 13:49 7,5 C 85 % 997,5 hPa 0,0 l/m 15,9 km/h (3 Bft) N 5 0 min 0 W/m 5,1 C 1,7 C 15,9 km/h (3 Bft)
30.10.2008 13:54 7,6 C 84 % 997,5 hPa 0,0 l/m 10,7 km/h (2 Bft) NO 45 0 min 0 W/m 5,1 C 4,5 C 10,7 km/h (2 Bft)
30.10.2008 13:59 7,6 C 84 % 997,5 hPa 0,0 l/m 15,1 km/h (3 Bft) NO 35 0 min 0 W/m 5,1 C 2,2 C 15,1 km/h (3 Bft)
30.10.2008 14:04 7,6 C 83 % 997,5 hPa 0,0 l/m 14,5 km/h (3 Bft) N-NO 30 0 min 0 W/m 4,9 C 2,5 C 14,5 km/h (3 Bft)
30.10.2008 14:09 7,6 C 83 % 997,5 hPa 0,0 l/m 14,3 km/h (3 Bft) NO 35 0 min 0 W/m 4,9 C 2,6 C 14,3 km/h (3 Bft)
30.10.2008 14:14 7,5 C 83 % 997,5 hPa 0,0 l/m 12,0 km/h (2 Bft) N-NO 30 0 min 0 W/m 4,8 C 3,6 C 12,0 km/h (2 Bft)
30.10.2008 14:19 7,5 C 83 % 997,5 hPa 0,0 l/m 12,6 km/h (3 Bft) N-NO 25 0 min 0 W/m 4,8 C 3,3 C 12,6 km/h (3 Bft)
30.10.2008 14:24 7,5 C 83 % 997,5 hPa 0,0 l/m 13,8 km/h (3 Bft) NO 45 0 min 0 W/m 4,8 C 2,7 C 13,8 km/h (3 Bft)
30.10.2008 14:29 7,5 C 83 % 997,5 hPa 0,0 l/m 13,1 km/h (3 Bft) NO 35 0 min 0 W/m 4,8 C 3,0 C 13,1 km/h (3 Bft)
30.10.2008 14:35 7,4 C 83 % 997,5 hPa 0,0 l/m 10,8 km/h (2 Bft) N-NO 15 0 min 0 W/m 4,7 C 4,2 C 10,8 km/h (2 Bft)
30.10.2008 14:39 7,3 C 83 % 997,5 hPa 0,0 l/m 11,3 km/h (2 Bft) N-NO 30 0 min 0 W/m 4,6 C 3,8 C 11,3 km/h (2 Bft)
30.10.2008 14:44 7,3 C 83 % 997,5 hPa 0,0 l/m 15,8 km/h (3 Bft) NO 35 0 min 0 W/m 4,6 C 1,5 C 15,8 km/h (3 Bft)
30.10.2008 14:49 7,2 C 83 % 997,5 hPa 0,0 l/m 13,5 km/h (3 Bft) N-NO 25 0 min 0 W/m 4,5 C 2,5 C 13,5 km/h (3 Bft)
30.10.2008 14:54 7,2 C 82 % 997,5 hPa 0,0 l/m 14,1 km/h (3 Bft) N-NO 30 0 min 0 W/m 4,3 C 2,2 C 14,1 km/h (3 Bft)
30.10.2008 14:59 7,1 C 83 % 997,5 hPa 0,0 l/m 7,8 km/h (2 Bft) N-NO 20 0 min 0 W/m 4,4 C 6,0 C 7,8 km/h (2 Bft)
30.10.2008 15:04 7,0 C 82 % 997,5 hPa 0,0 l/m 21,6 km/h (4 Bft) NO 40 0 min 0 W/m 4,1 C -1,2 C 21,6 km/h (4 Bft)
30.10.2008 15:09 7,0 C 82 % 997,5 hPa 0,0 l/m 14,0 km/h (3 Bft) NO 35 0 min 0 W/m 4,1 C 2,0 C 14,0 km/h (3 Bft)
30.10.2008 15:14 6,9 C 82 % 997,5 hPa 0,0 l/m 13,3 km/h (3 Bft) N-NO 25 0 min 0 W/m 4,0 C 2,2 C 13,3 km/h (3 Bft)
30.10.2008 15:19 6,8 C 82 % 997,5 hPa 0,0 l/m 9,5 km/h (2 Bft) NO 40 0 min 0 W/m 3,9 C 4,4 C 9,5 km/h (2 Bft)
30.10.2008 15:25 6,8 C 82 % 997,5 hPa 0,0 l/m 15,5 km/h (3 Bft) N-NO 30 0 min 0 W/m 3,9 C 1,0 C 15,5 km/h (3 Bft)
30.10.2008 15:30 6,7 C 83 % 997,5 hPa 0,0 l/m 11,6 km/h (2 Bft) N-NO 25 0 min 0 W/m 4,0 C 2,9 C 11,6 km/h (2 Bft)
30.10.2008 15:34 6,6 C 83 % 997,5 hPa 0,0 l/m 12,0 km/h (2 Bft) N-NO 20 0 min 0 W/m 3,9 C 2,6 C 12,0 km/h (2 Bft)
30.10.2008 15:39 6,6 C 83 % 997,5 hPa 0,0 l/m 10,4 km/h (2 Bft) N-NO 30 0 min 0 W/m 3,9 C 3,6 C 10,4 km/h (2 Bft)
30.10.2008 15:44 6,5 C 83 % 997,5 hPa 0,0 l/m 14,4 km/h (3 Bft) N-NO 30 0 min 0 W/m 3,8 C 1,2 C 14,4 km/h (3 Bft)
30.10.2008 15:49 6,5 C 83 % 997,5 hPa 0,0 l/m 9,2 km/h (2 Bft) N-NO 30 0 min 0 W/m 3,8 C 4,3 C 9,2 km/h (2 Bft)
30.10.2008 15:54 6,4 C 84 % 997,5 hPa 0,0 l/m 9,2 km/h (2 Bft) N-NO 20 0 min 0 W/m 3,9 C 4,2 C 9,2 km/h (2 Bft)
30.10.2008 15:59 6,4 C 84 % 997,5 hPa 0,0 l/m 9,8 km/h (2 Bft) N-NO 20 0 min 0 W/m 3,9 C 3,8 C 9,8 km/h (2 Bft)
30.10.2008 16:05 6,3 C 84 % 997,5 hPa 0,0 l/m 11,7 km/h (2 Bft) N-NO 30 0 min 0 W/m 3,8 C 2,4 C 11,7 km/h (2 Bft)
30.10.2008 16:09 6,2 C 84 % 997,5 hPa 0,0 l/m 9,0 km/h (2 Bft) N 5 0 min 0 W/m 3,7 C 4,1 C 9,0 km/h (2 Bft)
30.10.2008 16:14 6,2 C 84 % 997,5 hPa 0,0 l/m 7,2 km/h (2 Bft) NO 40 0 min 0 W/m 3,7 C 5,5 C 7,2 km/h (2 Bft)
30.10.2008 16:19 6,1 C 84 % 997,5 hPa 0,0 l/m 10,6 km/h (2 Bft) N-NO 20 0 min 0 W/m 3,6 C 2,9 C 10,6 km/h (2 Bft)
30.10.2008 16:25 6,0 C 85 % 997,5 hPa 0,0 l/m 10,0 km/h (2 Bft) N-NO 25 0 min 0 W/m 3,7 C 3,2 C 10,0 km/h (2 Bft)
30.10.2008 16:29 6,0 C 85 % 997,5 hPa 0,0 l/m 11,5 km/h (2 Bft) N-NO 20 0 min 0 W/m 3,7 C 2,2 C 11,5 km/h (2 Bft)
30.10.2008 16:34 6,0 C 84 % 997,5 hPa 0,0 l/m 11,3 km/h (2 Bft) NO 40 0 min 0 W/m 3,5 C 2,3 C 11,3 km/h (2 Bft)
30.10.2008 16:39 6,0 C 84 % 997,5 hPa 0,0 l/m 12,1 km/h (2 Bft) N-NO 20 0 min 0 W/m 3,5 C 1,8 C 12,1 km/h (2 Bft)
30.10.2008 16:44 5,9 C 84 % 997,5 hPa 0,0 l/m 11,1 km/h (2 Bft) N 355 0 min 0 W/m 3,4 C 2,3 C 11,1 km/h (2 Bft)
30.10.2008 16:49 5,9 C 84 % 997,5 hPa 0,0 l/m 8,4 km/h (2 Bft) N-NO 30 0 min 0 W/m 3,4 C 4,2 C 8,4 km/h (2 Bft)
30.10.2008 16:54 5,9 C 84 % 997,5 hPa 0,0 l/m 9,4 km/h (2 Bft) NO 35 0 min 0 W/m 3,4 C 3,5 C 9,4 km/h (2 Bft)
30.10.2008 17:00 5,8 C 84 % 997,5 hPa 0,0 l/m 14,5 km/h (3 Bft) NO 35 0 min 0 W/m 3,3 C 0,3 C 14,5 km/h (3 Bft)
30.10.2008 17:04 5,8 C 84 % 998,5 hPa 0,0 l/m 12,0 km/h (2 Bft) N-NO 25 0 min 0 W/m 3,3 C 1,7 C 12,0 km/h (2 Bft)
30.10.2008 17:09 5,8 C 85 % 998,5 hPa 0,0 l/m 9,5 km/h (2 Bft) N 10 0 min 0 W/m 3,5 C 3,3 C 9,5 km/h (2 Bft)
30.10.2008 17:15 5,8 C 85 % 998,5 hPa 0,0 l/m 11,0 km/h (2 Bft) N-NO 20 0 min 0 W/m 3,5 C 2,3 C 11,0 km/h (2 Bft)
30.10.2008 17:20 5,8 C 85 % 998,5 hPa 0,0 l/m 10,6 km/h (2 Bft) N-NO 30 0 min 0 W/m 3,5 C 2,6 C 10,6 km/h (2 Bft)
30.10.2008 17:24 5,8 C 85 % 998,5 hPa 0,0 l/m 9,6 km/h (2 Bft) N-NO 25 0 min 0 W/m 3,5 C 3,2 C 9,6 km/h (2 Bft)
30.10.2008 17:29 5,8 C 85 % 998,5 hPa 0,0 l/m 16,5 km/h (3 Bft) N-NO 20 0 min 0 W/m 3,5 C -0,7 C 16,5 km/h (3 Bft)
30.10.2008 17:34 5,8 C 85 % 998,5 hPa 0,0 l/m 9,3 km/h (2 Bft) N-NO 30 0 min 0 W/m 3,5 C 3,4 C 9,3 km/h (2 Bft)
30.10.2008 17:39 5,8 C 85 % 998,5 hPa 0,0 l/m 8,7 km/h (2 Bft) NO 45 0 min 0 W/m 3,5 C 3,9 C 8,7 km/h (2 Bft)
30.10.2008 17:44 5,8 C 85 % 998,5 hPa 0,0 l/m 6,8 km/h (2 Bft) N-NO 20 0 min 0 W/m 3,5 C 5,5 C 6,8 km/h (2 Bft)
30.10.2008 17:49 5,8 C 85 % 998,5 hPa 0,0 l/m 11,2 km/h (2 Bft) NO 40 0 min 0 W/m 3,5 C 2,2 C 11,2 km/h (2 Bft)
30.10.2008 17:55 5,7 C 85 % 998,5 hPa 0,0 l/m 11,4 km/h (2 Bft) N-NO 30 0 min 0 W/m 3,4 C 1,9 C 11,4 km/h (2 Bft)
30.10.2008 17:59 5,7 C 85 % 998,5 hPa 0,0 l/m 7,4 km/h (2 Bft) N-NO 15 0 min 0 W/m 3,4 C 4,8 C 7,4 km/h (2 Bft)
30.10.2008 18:04 5,7 C 85 % 998,5 hPa 0,0 l/m 9,8 km/h (2 Bft) NO 35 0 min 0 W/m 3,4 C 3,0 C 9,8 km/h (2 Bft)
30.10.2008 18:10 5,7 C 85 % 998,5 hPa 0,0 l/m 11,3 km/h (2 Bft) N-NO 25 0 min 0 W/m 3,4 C 2,0 C 11,3 km/h (2 Bft)
30.10.2008 18:14 5,7 C 85 % 998,5 hPa 0,0 l/m 9,9 km/h (2 Bft) NO 35 0 min 0 W/m 3,4 C 2,9 C 9,9 km/h (2 Bft)
30.10.2008 18:19 5,7 C 85 % 998,5 hPa 0,0 l/m 8,1 km/h (2 Bft) N-NO 25 0 min 0 W/m 3,4 C 4,3 C 8,1 km/h (2 Bft)
30.10.2008 18:24 5,7 C 85 % 998,5 hPa 0,0 l/m 6,7 km/h (2 Bft) N-NO 25 0 min 0 W/m 3,4 C 5,5 C 6,7 km/h (2 Bft)
30.10.2008 18:29 5,7 C 85 % 998,5 hPa 0,0 l/m 10,0 km/h (2 Bft) NO 40 0 min 0 W/m 3,4 C 2,8 C 10,0 km/h (2 Bft)
30.10.2008 18:34 5,6 C 86 % 998,5 hPa 0,0 l/m 7,0 km/h (2 Bft) N-NO 20 0 min 0 W/m 3,4 C 5,1 C 7,0 km/h (2 Bft)
30.10.2008 18:39 5,6 C 86 % 998,5 hPa 0,0 l/m 5,7 km/h (2 Bft) N-NO 30 0 min 0 W/m 3,4 C 5,6 C 5,7 km/h (2 Bft)
30.10.2008 18:45 5,6 C 86 % 998,5 hPa 0,0 l/m 1,4 km/h (1 Bft) N-NO 25 0 min 0 W/m 3,4 C 5,6 C 1,4 km/h (1 Bft)
30.10.2008 18:49 5,6 C 86 % 998,5 hPa 0,0 l/m 1,3 km/h (1 Bft) N 10 0 min 0 W/m 3,4 C 5,6 C 1,3 km/h (1 Bft)
30.10.2008 18:54 5,5 C 86 % 998,5 hPa 0,0 l/m 4,1 km/h (1 Bft) N-NO 25 0 min 0 W/m 3,3 C 5,5 C 4,1 km/h (1 Bft)
30.10.2008 18:59 5,4 C 86 % 998,5 hPa 0,0 l/m 0,3 km/h (0 Bft) N-NO 15 0 min 0 W/m 3,3 C 5,4 C 0,3 km/h (0 Bft)
30.10.2008 19:04 5,4 C 86 % 998,5 hPa 0,0 l/m 4,4 km/h (1 Bft) N-NO 30 0 min 0 W/m 3,3 C 5,4 C 4,4 km/h (1 Bft)
30.10.2008 19:09 5,3 C 86 % 998,5 hPa 0,0 l/m 0,9 km/h (0 Bft) NO 55 0 min 0 W/m 3,2 C 5,3 C 0,9 km/h (0 Bft)
30.10.2008 19:14 5,3 C 86 % 998,5 hPa 0,0 l/m 0,2 km/h (0 Bft) NO 35 0 min 0 W/m 3,2 C 5,3 C 0,2 km/h (0 Bft)
30.10.2008 19:19 5,2 C 86 % 998,5 hPa 0,0 l/m 0,9 km/h (0 Bft) N 10 0 min 0 W/m 3,1 C 5,2 C 0,9 km/h (0 Bft)
30.10.2008 19:24 4,9 C 86 % 998,5 hPa 0,0 l/m 0,9 km/h (0 Bft) N 10 0 min 0 W/m 2,8 C 4,9 C 0,9 km/h (0 Bft)
30.10.2008 19:29 4,9 C 87 % 998,5 hPa 0,0 l/m 0,7 km/h (0 Bft) N 360 0 min 0 W/m 2,9 C 4,9 C 0,7 km/h (0 Bft)
30.10.2008 19:35 4,7 C 86 % 998,5 hPa 0,0 l/m 0,1 km/h (0 Bft) N 5 0 min 0 W/m 2,6 C 4,7 C 0,1 km/h (0 Bft)
30.10.2008 19:39 4,6 C 87 % 998,5 hPa 0,0 l/m 0,0 km/h (0 Bft) N 5 0 min 0 W/m 2,6 C 4,6 C 0,0 km/h (0 Bft)
30.10.2008 19:44 4,5 C 87 % 998,5 hPa 0,0 l/m 2,5 km/h (1 Bft) N-NO 30 0 min 0 W/m 2,5 C 4,5 C 2,5 km/h (1 Bft)
30.10.2008 19:49 4,4 C 87 % 998,5 hPa 0,0 l/m 0,0 km/h (0 Bft) N-NO 30 0 min 0 W/m 2,4 C 4,4 C 0,0 km/h (0 Bft)
30.10.2008 19:54 4,3 C 87 % 998,5 hPa 0,0 l/m 1,8 km/h (1 Bft) N-NO 30 0 min 0 W/m 2,3 C 4,3 C 1,8 km/h (1 Bft)
30.10.2008 19:59 4,2 C 87 % 998,5 hPa 0,0 l/m 3,6 km/h (1 Bft) N 360 0 min 0 W/m 2,2 C 4,2 C 3,6 km/h (1 Bft)
30.10.2008 20:05 4,1 C 87 % 998,5 hPa 0,0 l/m 0,3 km/h (0 Bft) N-NO 20 0 min 0 W/m 2,1 C 4,1 C 0,3 km/h (0 Bft)
30.10.2008 20:09 4,0 C 88 % 998,5 hPa 0,0 l/m 2,6 km/h (1 Bft) N-NO 15 0 min 0 W/m 2,2 C 4,0 C 2,6 km/h (1 Bft)
30.10.2008 20:14 3,9 C 87 % 998,5 hPa 0,0 l/m 0,2 km/h (0 Bft) N-NO 25 0 min 0 W/m 1,9 C 3,9 C 0,2 km/h (0 Bft)
30.10.2008 20:20 3,8 C 87 % 998,5 hPa 0,0 l/m 0,0 km/h (0 Bft) N-NO 25 0 min 0 W/m 1,8 C 3,8 C 0,0 km/h (0 Bft)
30.10.2008 20:25 3,7 C 87 % 998,5 hPa 0,0 l/m 0,0 km/h (0 Bft) N-NO 25 0 min 0 W/m 1,7 C 3,7 C 0,0 km/h (0 Bft)
30.10.2008 20:29 3,6 C 88 % 998,5 hPa 0,0 l/m 0,0 km/h (0 Bft) N-NO 25 0 min 0 W/m 1,8 C 3,6 C 0,0 km/h (0 Bft)
30.10.2008 20:34 3,5 C 88 % 998,5 hPa 0,0 l/m 0,0 km/h (0 Bft) N-NO 25 0 min 0 W/m 1,7 C 3,5 C 0,0 km/h (0 Bft)
30.10.2008 20:39 3,4 C 88 % 998,5 hPa 0,0 l/m 0,0 km/h (0 Bft) N-NO 25 0 min 0 W/m 1,6 C 3,4 C 0,0 km/h (0 Bft)
30.10.2008 20:44 3,2 C 88 % 998,5 hPa 0,0 l/m 0,0 km/h (0 Bft) N-NO 25 0 min 0 W/m 1,4 C 3,2 C 0,0 km/h (0 Bft)
30.10.2008 20:49 3,1 C 88 % 998,5 hPa 0,0 l/m 0,0 km/h (0 Bft) N-NO 25 0 min 0 W/m 1,3 C 3,1 C 0,0 km/h (0 Bft)
30.10.2008 20:55 3,1 C 88 % 998,5 hPa 0,0 l/m 0,0 km/h (0 Bft) N-NO 25 0 min 0 W/m 1,3 C 3,1 C 0,0 km/h (0 Bft)
30.10.2008 20:59 3,0 C 88 % 998,5 hPa 0,0 l/m 0,0 km/h (0 Bft) N-NO 25 0 min 0 W/m 1,2 C 3,0 C 0,0 km/h (0 Bft)
30.10.2008 21:04 2,9 C 88 % 998,5 hPa 0,0 l/m 0,0 km/h (0 Bft) N-NO 25 0 min 0 W/m 1,1 C 2,9 C 0,0 km/h (0 Bft)
30.10.2008 21:10 2,9 C 89 % 999,5 hPa 0,0 l/m 0,0 km/h (0 Bft) N-NO 25 0 min 0 W/m 1,3 C 2,9 C 0,0 km/h (0 Bft)
30.10.2008 21:14 2,7 C 89 % 999,5 hPa 0,0 l/m 0,0 km/h (0 Bft) N-NO 25 0 min 0 W/m 1,1 C 2,7 C 0,0 km/h (0 Bft)
30.10.2008 21:19 2,7 C 89 % 999,5 hPa 0,0 l/m 0,0 km/h (0 Bft) N-NO 25 0 min 0 W/m 1,1 C 2,7 C 0,0 km/h (0 Bft)
30.10.2008 21:24 2,7 C 89 % 999,5 hPa 0,0 l/m 0,0 km/h (0 Bft) N-NO 25 0 min 0 W/m 1,1 C 2,7 C 0,0 km/h (0 Bft)
30.10.2008 21:29 2,6 C 89 % 999,5 hPa 0,0 l/m 0,0 km/h (0 Bft) N-NO 25 0 min 0 W/m 1,0 C 2,6 C 0,0 km/h (0 Bft)
30.10.2008 21:34 2,5 C 89 % 999,5 hPa 0,0 l/m 0,0 km/h (0 Bft) N-NO 25 0 min 0 W/m 0,9 C 2,5 C 0,0 km/h (0 Bft)
30.10.2008 21:39 2,4 C 90 % 999,5 hPa 0,0 l/m 0,0 km/h (0 Bft) N-NO 25 0 min 0 W/m 0,9 C 2,4 C 0,0 km/h (0 Bft)
30.10.2008 21:45 2,4 C 90 % 999,5 hPa 0,0 l/m 0,0 km/h (0 Bft) N-NO 25 0 min 0 W/m 0,9 C 2,4 C 0,0 km/h (0 Bft)
30.10.2008 21:49 2,3 C 90 % 999,5 hPa 0,0 l/m 0,0 km/h (0 Bft) N-NO 25 0 min 0 W/m 0,8 C 2,3 C 0,0 km/h (0 Bft)
30.10.2008 21:54 2,3 C 90 % 999,5 hPa 0,0 l/m 0,0 km/h (0 Bft) N-NO 25 0 min 0 W/m 0,8 C 2,3 C 0,0 km/h (0 Bft)
30.10.2008 21:59 2,3 C 90 % 999,5 hPa 0,0 l/m 0,0 km/h (0 Bft) N-NO 25 0 min 0 W/m 0,8 C 2,3 C 0,0 km/h (0 Bft)
30.10.2008 22:04 2,3 C 90 % 999,5 hPa 0,0 l/m 0,0 km/h (0 Bft) N-NO 25 0 min 0 W/m 0,8 C 2,3 C 0,0 km/h (0 Bft)
30.10.2008 22:09 2,2 C 90 % 999,5 hPa 0,0 l/m 0,0 km/h (0 Bft) N-NO 25 0 min 0 W/m 0,7 C 2,2 C 0,0 km/h (0 Bft)
30.10.2008 22:14 2,1 C 90 % 999,5 hPa 0,0 l/m 0,0 km/h (0 Bft) N-NO 25 0 min 0 W/m 0,6 C 2,1 C 0,0 km/h (0 Bft)
30.10.2008 22:19 2,1 C 90 % 999,5 hPa 0,0 l/m 0,0 km/h (0 Bft) N-NO 25 0 min 0 W/m 0,6 C 2,1 C 0,0 km/h (0 Bft)
30.10.2008 22:24 2,2 C 90 % 999,5 hPa 0,0 l/m 0,0 km/h (0 Bft) N-NO 25 0 min 0 W/m 0,7 C 2,2 C 0,0 km/h (0 Bft)
30.10.2008 22:30 2,1 C 90 % 999,5 hPa 0,0 l/m 0,0 km/h (0 Bft) N-NO 25 0 min 0 W/m 0,6 C 2,1 C 0,0 km/h (0 Bft)
30.10.2008 22:35 2,1 C 90 % 999,5 hPa 0,0 l/m 0,0 km/h (0 Bft) N-NO 25 0 min 0 W/m 0,6 C 2,1 C 0,0 km/h (0 Bft)
30.10.2008 22:39 2,1 C 91 % 999,5 hPa 0,0 l/m 0,0 km/h (0 Bft) N-NO 25 0 min 0 W/m 0,8 C 2,1 C 0,0 km/h (0 Bft)
30.10.2008 22:44 2,2 C 91 % 999,5 hPa 0,0 l/m 0,0 km/h (0 Bft) N-NO 25 0 min 0 W/m 0,9 C 2,2 C 0,0 km/h (0 Bft)
30.10.2008 22:49 2,2 C 91 % 1000,5 hPa 0,0 l/m 0,0 km/h (0 Bft) N-NO 25 0 min 0 W/m 0,9 C 2,2 C 0,0 km/h (0 Bft)
30.10.2008 22:54 2,2 C 91 % 1000,5 hPa 0,0 l/m 0,0 km/h (0 Bft) N-NO 25 0 min 0 W/m 0,9 C 2,2 C 0,0 km/h (0 Bft)
30.10.2008 22:59 2,2 C 91 % 1000,5 hPa 0,0 l/m 0,0 km/h (0 Bft) N-NO 25 0 min 0 W/m 0,9 C 2,2 C 0,0 km/h (0 Bft)
30.10.2008 23:05 2,2 C 91 % 1000,5 hPa 0,0 l/m 0,0 km/h (0 Bft) N-NO 25 0 min 0 W/m 0,9 C 2,2 C 0,0 km/h (0 Bft)
30.10.2008 23:09 2,1 C 91 % 1000,5 hPa 0,0 l/m 0,0 km/h (0 Bft) N-NO 25 0 min 0 W/m 0,8 C 2,1 C 0,0 km/h (0 Bft)
30.10.2008 23:14 2,1 C 91 % 1000,5 hPa 0,0 l/m 0,0 km/h (0 Bft) N-NO 25 0 min 0 W/m 0,8 C 2,1 C 0,0 km/h (0 Bft)
30.10.2008 23:20 2,1 C 91 % 1000,5 hPa 0,0 l/m 0,0 km/h (0 Bft) N-NO 25 0 min 0 W/m 0,8 C 2,1 C 0,0 km/h (0 Bft)
30.10.2008 23:24 2,1 C 91 % 1000,5 hPa 0,0 l/m 0,0 km/h (0 Bft) N-NO 25 0 min 0 W/m 0,8 C 2,1 C 0,0 km/h (0 Bft)
30.10.2008 23:29 2,1 C 91 % 1000,5 hPa 0,0 l/m 0,0 km/h (0 Bft) N-NO 25 0 min 0 W/m 0,8 C 2,1 C 0,0 km/h (0 Bft)
30.10.2008 23:34 2,1 C 91 % 1000,5 hPa 0,0 l/m 0,0 km/h (0 Bft) N-NO 25 0 min 0 W/m 0,8 C 2,1 C 0,0 km/h (0 Bft)
30.10.2008 23:39 2,1 C 92 % 1000,5 hPa 0,0 l/m 0,0 km/h (0 Bft) N-NO 25 0 min 0 W/m 0,9 C 2,1 C 0,0 km/h (0 Bft)
30.10.2008 23:44 2,1 C 92 % 1000,5 hPa 0,0 l/m 0,0 km/h (0 Bft) N-NO 25 0 min 0 W/m 0,9 C 2,1 C 0,0 km/h (0 Bft)
30.10.2008 23:49 2,1 C 92 % 1000,5 hPa 0,0 l/m 0,0 km/h (0 Bft) N-NO 25 0 min 0 W/m 0,9 C 2,1 C 0,0 km/h (0 Bft)
30.10.2008 23:55 2,1 C 92 % 1000,5 hPa 0,0 l/m 0,0 km/h (0 Bft) N-NO 25 0 min 0 W/m 0,9 C 2,1 C 0,0 km/h (0 Bft)
30.10.2008 23:59 2,1 C 92 % 1000,5 hPa 0,0 l/m 0,0 km/h (0 Bft) N-NO 25 0 min 0 W/m 0,9 C 2,1 C 0,0 km/h (0 Bft)
_ Min-Zeit 03:54 14:54 13:04 - 00:14 - - - - 03:54 12:09 00:14
Minimum _ 0,4 C 82 % 996,5 hPa - 0,0 km/h (0 Bft) - - - - -0,3 C -1,9 C 0,0 km/h (0 Bft)
_ Max-Zeit 09:04 08:19 00:04 00:04 12:09 - - 00:04 00:04 09:04 09:04 12:09
Maximum _ 8,0 C 98 % 1002,5 hPa 0,0 l/m 22,9 km/h
N-NO (4 Bft)
- - 0 min 0 W/m 7,1 C 8,0 C 22,9 km/h
N-NO (4 Bft)
Durchschnitt _ 3,9 C 91 % 998,9 hPa #0,0 l/m 5,2 km/h (1 Bft) N-NO - #0 min. 0 W/m 2,5 C 2,4 C 5,2 km/h (1 Bft)
copyright by Holger Just